Regional Weather Roundup
Issued by NWS

Home | Current Version | Previous Version | Graphics & Text | Print | Product List | Glossary On
Versions: 1 2 3 4 5 6 7 8 9 10 11 12 13 14 15 16 17 18 19 20 21 22 23 24 25 26 27 28 29 30 31 32 33 34 35 36 37 38 39 40 41 42 43 44 45 46 47 48 49 50
574
ASUS43 KBIS 260202
RWRND

NORTH DAKOTA REGIONAL WEATHER ROUNDUP
NATIONAL WEATHER SERVICE BISMARCK ND
900 PM CDT TUE APR 25 2017

NOTE: "FAIR" INDICATES FEW OR NO CLOUDS BELOW 12,000 FEET WITH NO
SIGNIFICANT WEATHER AND/OR OBSTRUCTIONS TO VISIBILITY.


NDZ001>003-009>011-017-260300-
NORTHWEST NORTH DAKOTA

CITY           SKY/WX    TMP DP  RH WIND       PRES   REMARKS
WILLISTON      MOCLDY    39  25  57 N8        29.97S
MINOT          CLOUDY    39  26  59 N10       29.93S
MINOT AFB      CLOUDY    39  24  55 N16       29.93S
$$

NDZ018>021-031>035-040>046-260300-
SOUTHWEST NORTH DAKOTA

CITY           SKY/WX    TMP DP  RH WIND       PRES   REMARKS
BISMARCK       CLOUDY    37  27  67 N12       29.90R
DICKINSON      MOCLDY    31  23  72 N10       29.89S
GARRISON         N/A     37  26  64 NE6       29.92R
HETTINGER ARPT CLOUDY    31  24  75 N9        29.90R
$$

NDZ004>008-012>016-024-026-027-054-260300-
NORTHEAST NORTH DAKOTA

CITY           SKY/WX    TMP DP  RH WIND       PRES   REMARKS
GRAND FORKS    CLOUDY    36  28  73 NE21G28   29.89R
GRND FRKS AFB  CLOUDY    34  28  78 NE16G22   29.89R
DEVILS LAKE    FAIR      34  28  79 NE12      29.91R
$$

NDZ022-023-025-028>030-036>039-047>053-260300-
SOUTHEAST NORTH DAKOTA

CITY           SKY/WX    TMP DP  RH WIND       PRES   REMARKS
FARGO          CLOUDY    34  28  79 N22G30    29.80R
JAMESTOWN      CLOUDY    32  27  81 N17G26    29.86R
$$





USA.gov is the U.S. government's official web portal to all federal, state and local government web resources and services.